Жалтыр

Казахстан     51°37′42″N   69°50′15″E
темп.,
°C
ветер,
м/с
пор.,
м/с
влажн.,
%
обл.,
%
осадки,
мм/ч
давл.,
гПа
погр.,
м
2 марта, вт
вт223:00−14з449796 0.2 101975
02:00−17зюз349787 0.0 101935
05:00−19зюз239987 0.1 101920
08:00−18юз2398100 0.1 101935
11:00−14зюз349299 0.2 1018254
14:00−11юз4692100 0.1 1017419
17:00−11зюз4793100 0.3 1017477
20:00−14зюз51094100 0.1 1018349
3 марта, ср
ср323:00−17юз5119699 0.1 1019271
02:00−17юз51195100 0.1 1020392
05:00−20ююз51197100 0.1 1020259
08:00−20ююз6129594 0.0 1020297
11:00−14юз7129090 0.0 1019462
14:00−8юз81490100 0.1 1018661
17:00−6юз71490100 0.1 1016781
20:00−4ююз71690100 0.1 1015711
4 марта, чт
чт423:00−3ююз81496100 0.5 1014745
02:00−2ююз101694100 0.5 1013945
05:00−2ююз101789100 1.0 1013934
08:00−2ююз111788100 0.3 1011898
11:00−2ююз111788100 0.4 1011929
14:00−1ююз121794100 0.5 10091074
17:00−1юз91588100 1.6 1008943
20:00−1юз91490100 0.7 1008904
5 марта, пт
пт523:00−4зюз8149595 0.8 1011731
02:00−9зюз6129384 0.1 1013312
05:00−13зюз6129578 0.1 1017251
08:00−14юз7149375 0.0 1020293
11:00−8юз10178655 0.0 1020712
14:00−4юз121984100 0.0 1020972
17:00−5юз10198299 0.1 1020823
20:00−6юз10198296 0.0 1020765
6 марта, сб
сб623:00−7юз10188597 0.0 1020756
02:00−6юз91884100 0.0 1019758
05:00−7юз8178795 0.0 1019608
08:00−7юз81691100 0.0 1019548
11:00−6зюз81392100 0.1 1019518
14:00−5зюз71192100 0.1 1019506
17:00−4юз4794100 0.1 1020434
20:00−6ююз4896100 0.0 1020183